ECMWFNIL_700_spd_132.txt.gz
Wind_Speed
37 35 33 31 30 28 25 23 22 21 20 22 25 27 27 26 25 24 25 25 26 25 25 25 24 24 23 23 22 21 21 20 19 18 18 18 19 19 20 21 21 21
39 37 35 34 32 30 28 25 23 22 21 21 25 27 28 28 27 27 27 27 26 25 24 24 24 24 24 23 22 22 21 21 20 19 19 19 19 20 21 21 21 21
40 39 37 36 33 31 30 27 24 23 22 22 25 27 28 29 29 29 28 27 26 25 24 23 23 23 24 23 23 22 21 21 21 20 20 20 20 20 21 21 21 21
41 40 39 38 36 33 31 29 27 25 24 23 24 26 28 30 30 30 29 27 26 25 24 23 23 23 24 24 24 23 22 22 21 21 21 21 21 21 21 21 21 21
41 40 40 40 39 36 33 30 29 28 26 25 24 25 28 31 31 31 30 28 27 25 24 23 23 24 24 24 24 24 23 22 22 22 22 21 21 21 21 21 22 22
41 41 41 41 41 39 36 32 30 30 29 26 25 25 28 31 32 31 30 28 27 25 24 24 24 25 24 25 25 24 23 23 22 22 22 22 22 21 22 22 22 22
40 40 42 43 42 41 39 36 32 31 30 29 26 26 28 31 32 31 30 30 28 26 24 24 25 26 25 25 26 25 24 23 23 23 23 23 22 22 22 22 22 22
38 40 43 43 42 41 40 39 36 32 31 31 29 27 28 31 31 31 31 31 30 27 25 25 26 26 26 26 25 25 24 24 23 23 23 23 23 23 23 22 22 22
39 42 43 42 41 39 38 39 38 34 32 32 31 29 29 31 31 30 31 33 31 29 26 26 27 27 26 26 25 25 24 24 24 24 24 24 23 23 23 22 22 22
40 43 43 40 39 38 37 38 38 36 34 33 33 32 30 31 31 30 31 33 33 31 28 27 28 27 26 26 25 25 25 25 25 25 25 24 24 23 23 23 23 23
40 42 43 40 38 37 37 36 37 37 35 34 34 34 32 32 32 30 31 32 33 32 29 28 28 28 27 26 25 26 26 26 26 26 26 25 24 24 23 23 23 23
39 40 41 40 37 37 36 36 36 36 35 34 35 36 35 33 32 31 30 31 34 33 30 29 28 28 27 27 26 26 27 26 26 26 26 26 25 24 24 24 23 23
40 39 40 40 38 37 36 35 35 35 35 35 36 37 37 34 32 31 30 31 34 35 32 30 29 29 28 27 27 27 27 27 27 27 27 27 25 24 24 24 24 24
41 40 41 41 41 38 35 34 34 34 35 36 37 38 38 36 33 31 30 32 35 36 34 32 30 30 29 28 28 27 27 27 27 28 28 27 26 25 25 25 24 25
41 42 42 43 43 38 34 34 35 36 37 37 38 39 40 38 35 32 31 33 35 36 36 33 31 30 30 29 28 27 27 27 28 28 29 28 27 27 26 25 25 25
41 42 42 43 42 38 35 35 37 38 39 39 39 40 41 39 37 34 32 33 35 37 37 34 32 31 30 30 29 28 28 28 28 29 29 29 28 27 26 26 25 25
43 42 43 42 40 38 36 36 38 39 40 41 41 41 42 41 38 36 33 33 35 38 38 36 32 32 31 30 30 29 29 29 29 29 30 29 28 27 27 26 26 26
46 43 43 42 40 36 34 34 36 39 41 42 42 42 42 41 39 37 34 33 34 38 39 36 33 32 33 32 30 30 30 30 29 30 30 29 28 28 27 26 26 26
48 45 43 42 40 36 33 33 35 38 42 43 42 42 43 42 39 37 34 32 34 38 39 37 34 33 34 33 31 31 31 31 30 30 30 29 29 28 27 27 27 26
51 48 45 44 43 39 37 35 35 38 42 43 42 43 43 42 39 37 34 32 33 37 39 38 35 35 35 34 31 31 32 31 31 30 30 30 29 28 28 27 27 27
54 50 47 46 45 42 39 37 36 38 42 42 43 43 43 42 40 38 35 32 32 36 39 39 37 36 36 34 32 31 32 32 31 30 30 30 29 29 28 28 28 27
55 52 50 49 47 43 41 39 37 39 42 43 43 43 43 42 39 37 35 32 32 35 38 40 39 37 37 34 32 32 33 32 31 31 31 30 29 29 28 28 28 28
57 55 53 51 49 47 44 41 38 40 42 43 43 43 43 41 38 36 35 33 33 35 38 40 40 38 36 35 33 32 32 31 31 32 32 31 30 29 28 28 29 29
58 59 56 54 53 50 46 43 40 40 42 43 43 43 42 39 35 34 34 34 33 35 38 41 40 38 37 35 34 33 31 31 32 34 35 33 31 30 29 29 29 29
56 58 58 57 55 50 47 45 41 39 41 42 42 41 39 36 34 33 33 33 32 34 38 41 41 38 37 35 34 33 31 31 34 37 37 34 32 30 29 28 29 29
52 52 53 53 52 48 46 44 40 39 41 41 40 38 37 35 34 33 33 33 32 33 38 42 41 39 37 35 34 34 32 33 36 38 38 36 33 31 29 28 29 29

ECMWFNIL_700_spd_138.txt.gz
Wind_Speed
34 35 31 25 24 26 28 30 30 28 27 24 23 23 22 22 21 20 19 19 19 20 21 21 23 23 23 22 21 20 18 18 19 19 18 16 15 15 15 15 15 15
39 39 36 30 27 28 28 29 31 31 30 28 26 24 24 23 21 20 20 20 20 20 20 21 22 24 24 24 23 21 19 19 19 19 18 17 16 16 15 15 16 16
44 45 45 40 34 32 31 30 30 29 28 29 28 26 25 25 23 21 21 21 21 20 20 21 22 23 24 24 24 22 20 19 20 20 19 17 16 16 16 16 17 17
43 44 46 45 39 36 37 35 33 31 27 27 28 28 27 26 25 23 22 23 22 21 20 20 21 22 23 24 24 23 22 21 20 20 19 18 17 17 17 17 18 18
46 43 42 42 41 41 41 40 37 35 31 28 28 29 29 27 26 25 24 24 24 22 20 20 21 21 22 23 24 24 24 22 21 21 20 18 17 17 18 18 18 19
50 48 46 42 42 43 43 42 40 38 36 33 30 30 31 30 28 27 25 25 25 24 22 21 22 21 21 22 23 23 24 24 22 21 21 19 18 18 19 19 19 19
50 50 48 46 45 46 46 44 43 42 40 38 35 32 32 32 30 29 27 26 24 24 23 23 23 22 22 22 22 23 24 25 24 22 21 20 18 18 19 19 20 19
49 49 49 48 47 48 48 46 46 45 43 40 38 35 33 33 32 31 30 28 26 24 23 25 25 24 23 22 22 23 24 25 25 23 22 21 19 18 19 19 20 20
49 51 50 48 47 46 46 46 47 46 43 40 39 37 35 34 33 32 33 32 29 26 24 25 26 26 25 23 22 23 24 25 25 24 22 22 20 19 19 20 20 20
47 48 48 47 47 46 45 45 47 46 43 41 40 39 37 34 33 34 34 34 32 29 26 25 26 27 26 25 24 23 23 24 25 24 23 22 22 21 20 21 21 20
43 43 44 44 45 46 44 45 48 47 45 43 41 39 38 35 34 35 35 35 33 31 29 27 27 27 26 26 25 24 23 24 25 25 24 23 22 22 22 22 22 20
43 41 42 43 43 44 43 44 48 48 47 46 42 39 38 36 35 35 36 35 34 33 31 29 29 29 27 27 27 25 24 25 25 25 25 24 23 23 23 22 22 21
48 45 42 42 43 43 43 44 48 49 49 48 44 39 37 37 37 36 36 36 34 34 33 31 31 31 29 28 28 28 26 25 26 26 25 25 24 24 23 23 23 21
50 50 46 43 42 42 42 44 48 50 50 50 48 42 38 37 36 36 36 36 35 35 33 33 33 32 31 29 29 29 29 27 26 26 25 25 25 25 24 24 23 22
50 52 50 46 44 44 43 44 47 50 50 50 50 44 38 37 37 37 37 36 36 35 33 33 33 32 32 31 29 30 30 28 26 26 25 25 25 25 24 25 24 23
52 52 52 50 47 46 46 45 46 48 50 50 49 44 39 38 39 38 38 37 36 35 33 33 33 33 32 31 30 31 31 29 27 26 26 26 26 26 25 25 25 24
55 54 53 52 49 47 48 48 46 48 49 50 50 45 40 39 40 39 38 37 36 34 34 34 33 33 33 32 31 32 32 30 28 27 28 28 27 26 26 26 26 25
55 56 55 54 52 49 49 50 49 49 49 49 50 48 43 41 41 40 37 36 36 35 34 34 33 33 33 32 32 33 33 31 29 29 29 29 29 27 26 27 27 26
51 55 56 57 55 50 48 50 51 51 50 50 51 50 46 43 42 40 37 37 37 35 34 33 33 33 33 33 34 35 34 31 30 31 32 31 30 28 27 28 28 28
49 53 56 57 55 49 47 50 52 52 52 51 50 50 47 44 43 40 36 37 37 35 34 34 33 32 32 33 35 36 34 32 32 34 34 33 32 29 28 30 30 29
49 52 55 57 53 47 45 49 52 52 52 51 51 50 48 45 43 40 37 37 37 35 34 34 33 31 30 32 35 37 35 34 35 37 36 35 33 31 29 31 31 30
50 51 54 56 55 49 47 50 53 53 53 52 50 50 48 45 43 41 38 37 36 35 35 34 31 29 29 31 35 37 36 36 37 39 38 37 35 33 31 31 32 31
51 51 52 55 57 54 49 50 54 54 54 52 51 50 49 46 44 43 39 37 35 34 35 34 30 28 27 30 34 37 37 38 40 40 40 38 37 35 33 31 32 33
54 53 52 54 58 57 50 48 53 55 55 54 53 52 51 48 45 43 39 36 35 34 34 33 30 27 27 30 33 36 38 39 41 42 41 40 39 37 34 31 33 34
54 54 54 55 59 58 51 47 51 54 55 55 53 52 51 49 47 45 41 37 34 33 33 33 30 27 28 30 32 36 39 40 42 43 43 43 42 39 34 32 33 35
51 52 53 55 58 56 50 47 49 53 54 54 52 52 52 50 48 47 44 39 36 35 34 33 30 28 29 31 32 36 39 41 43 45 45 45 44 40 35 34 34 35

ECMWFNIL_700_spd_141.txt.gz
Wind_Speed
41 43 39 32 29 28 27 28 30 30 28 25 22 20 19 18 18 18 17 16 16 16 15 15 16 17 17 17 17 16 16 16 16 16 15 13 12 12 12 12 12 12
43 46 44 36 31 30 29 30 31 31 29 26 23 21 20 20 19 18 17 17 17 17 17 16 16 17 17 16 15 16 17 17 16 16 16 14 12 12 12 13 13 13
49 49 47 40 34 32 30 31 32 32 30 27 25 25 24 24 23 21 20 18 19 19 18 18 17 16 17 16 15 15 16 17 16 16 16 15 13 12 12 14 14 14
52 52 50 44 38 34 31 32 33 33 32 28 24 23 25 27 27 25 23 21 20 20 20 20 19 18 17 16 15 14 15 17 16 16 17 16 14 13 13 14 15 15
47 49 49 46 43 38 35 36 36 34 32 29 23 22 24 26 26 26 25 24 23 22 22 22 21 20 18 17 16 15 15 16 16 16 17 17 16 14 13 14 15 16
47 47 48 48 46 43 39 39 40 38 35 30 26 25 27 28 27 26 25 25 26 25 23 23 22 22 20 19 18 16 15 15 16 16 17 17 17 16 15 15 15 16
48 47 47 48 48 46 42 40 41 42 41 38 34 32 33 33 32 30 27 26 27 28 26 24 23 22 21 20 19 18 17 16 16 16 17 18 18 17 16 15 16 16
47 46 46 47 49 48 45 42 41 40 43 45 44 41 39 36 35 35 33 29 28 29 30 28 25 23 22 21 21 20 19 18 16 16 17 18 18 17 17 16 16 16
46 45 46 48 50 50 47 45 42 40 40 43 43 43 41 40 39 39 37 34 31 30 31 32 29 26 25 24 23 22 20 19 18 17 18 18 18 18 17 17 17 16
47 46 45 47 49 50 49 48 46 45 43 42 41 42 43 42 42 41 40 38 35 32 32 34 33 30 28 27 25 24 22 20 20 19 19 19 18 18 18 18 17 17
48 47 47 48 49 50 49 49 48 48 47 45 44 44 44 44 44 44 42 41 40 36 32 34 35 33 31 29 27 26 25 22 22 22 21 20 19 18 18 19 18 17
46 47 48 48 50 51 50 49 48 48 48 48 47 47 46 46 47 46 45 43 42 38 34 33 36 36 33 30 28 27 27 25 24 23 23 21 20 19 19 19 19 18
46 48 48 49 50 51 51 49 47 47 49 49 49 48 47 47 48 47 46 45 43 40 35 34 35 36 35 33 30 27 27 28 26 25 24 23 21 20 19 19 19 19
47 48 49 49 49 50 50 51 50 48 48 49 50 50 49 48 48 48 47 47 45 42 37 35 35 36 35 34 31 28 27 28 28 27 25 24 23 21 19 20 20 20
46 46 48 49 49 49 48 50 51 50 48 48 50 52 52 50 49 48 48 48 47 44 39 36 36 35 34 33 32 29 27 28 29 28 27 25 25 23 21 21 22 21
42 43 45 47 50 51 48 48 51 54 52 48 48 50 51 51 50 49 48 47 47 46 43 39 37 35 33 33 32 30 28 29 30 29 28 27 26 25 23 22 23 22
39 41 43 46 49 51 50 50 51 56 57 51 48 48 48 50 50 49 48 47 47 47 46 43 39 36 34 33 32 31 29 29 30 30 29 28 28 27 25 24 24 23
41 41 42 45 48 50 52 52 51 55 57 55 51 49 47 48 49 49 48 47 47 47 47 46 42 38 36 34 33 32 31 30 30 30 31 30 28 28 27 26 25 24
48 47 46 45 47 49 51 52 53 55 57 57 55 51 48 47 47 47 47 48 48 47 46 47 44 40 37 36 34 33 32 31 30 31 32 31 29 29 28 29 28 25
47 50 52 50 48 49 49 50 54 56 56 56 56 54 52 50 48 47 47 47 48 48 46 46 45 42 39 37 35 34 33 32 31 31 32 32 30 29 30 31 30 27
43 46 50 51 50 49 49 48 51 55 55 55 55 56 55 53 50 48 48 47 47 47 47 47 46 44 40 37 36 35 34 34 32 32 32 32 31 31 31 33 32 29
45 46 48 51 51 50 50 49 49 51 55 56 57 57 56 54 53 50 49 48 46 45 46 46 47 46 42 39 37 36 35 35 34 32 31 31 32 32 33 34 33 31
45 46 47 50 52 53 51 50 49 49 52 55 57 59 58 57 56 54 51 50 47 46 46 45 47 47 44 40 38 36 36 36 34 32 30 31 32 33 33 34 34 32
48 47 46 46 49 53 53 51 50 49 50 51 54 57 59 59 58 56 54 52 49 48 47 46 47 48 45 42 39 37 37 37 35 33 30 30 32 33 33 35 35 33
53 51 49 45 45 49 53 53 50 49 50 50 51 54 56 59 60 59 56 53 50 49 48 47 48 48 46 43 40 38 38 38 37 34 31 31 32 32 32 34 35 35
55 57 56 53 49 49 51 52 50 49 51 50 50 52 55 58 61 61 58 53 50 49 48 48 48 48 46 44 40 39 39 39 38 35 32 31 31 31 32 33 35 35

ECMWFNIL_700_spd_144.txt.gz
Wind_Speed
41 38 35 35 37 38 36 33 30 28 26 25 27 29 28 25 23 22 22 21 20 19 18 18 17 15 15 14 14 13 12 12 12 12 12 12 12 13 12 12 12 13
49 44 40 38 38 39 39 37 34 32 29 26 25 27 29 28 26 24 23 22 20 19 19 19 18 17 15 15 15 14 12 12 12 12 12 12 12 13 13 13 13 13
53 52 46 42 41 41 41 39 37 36 33 29 26 27 29 29 27 25 23 21 20 20 20 20 19 18 17 16 16 15 13 12 13 14 14 13 13 13 13 13 14 14
50 54 53 48 44 43 42 41 40 39 36 32 29 28 30 30 29 26 24 21 20 20 20 21 21 20 19 18 17 16 15 13 13 15 15 14 13 13 14 14 15 15
47 50 53 54 50 46 44 44 44 42 39 35 33 31 31 32 31 28 26 24 22 22 22 23 22 22 21 20 19 18 17 15 14 15 16 15 14 14 15 15 15 15
45 45 48 52 51 48 48 48 48 46 43 39 36 33 33 33 33 31 27 24 22 22 24 24 24 24 23 22 21 20 19 17 16 17 17 17 15 15 16 16 16 16
45 44 45 47 48 47 49 50 50 48 47 43 39 36 34 34 35 34 30 24 22 22 23 24 25 26 25 24 22 21 21 19 18 18 19 18 17 17 17 17 17 17
49 46 44 45 46 48 50 51 51 50 49 47 42 38 37 35 33 33 31 27 25 24 24 24 25 26 27 27 25 23 22 21 20 20 19 19 19 18 17 17 17 18
51 49 45 44 46 49 51 52 53 50 50 51 47 42 40 38 35 33 31 29 28 27 27 27 27 28 28 29 28 26 25 23 23 23 21 21 21 19 18 18 19 19
48 47 45 44 45 48 50 51 51 48 47 49 49 47 44 42 40 40 37 34 32 30 30 30 30 31 31 30 29 28 28 27 26 26 25 23 22 21 20 20 20 20
49 46 45 45 45 46 48 49 49 47 46 46 47 49 49 45 42 43 43 41 39 36 34 33 32 33 34 33 31 29 29 29 29 28 28 26 24 23 22 22 22 21
52 50 47 45 45 45 47 48 47 46 45 45 47 50 52 49 45 42 42 43 43 42 40 38 36 35 35 35 33 30 28 29 32 32 30 29 28 25 24 24 23 23
54 53 48 43 43 44 45 46 46 45 44 45 47 49 52 52 49 45 42 40 40 41 42 40 38 37 36 35 34 33 30 29 31 34 33 32 31 28 26 25 25 25
50 52 45 39 40 42 42 43 44 44 45 46 47 49 51 52 51 48 45 42 41 42 42 41 40 39 38 36 35 34 33 31 31 34 35 34 32 31 29 27 27 27
47 48 40 31 31 36 39 41 42 43 45 46 47 48 49 50 50 49 47 46 44 43 43 43 42 41 39 38 37 35 34 33 33 33 36 36 34 34 32 30 29 29
41 44 39 29 26 31 37 39 41 42 44 46 48 48 47 48 49 50 49 48 46 45 45 45 44 43 41 39 38 37 35 35 34 33 35 37 36 36 35 33 31 30
33 33 29 24 23 29 35 39 42 43 44 46 48 49 48 46 47 49 50 49 48 46 46 47 46 44 43 41 40 38 37 37 37 34 34 36 37 36 36 35 33 31
38 32 25 22 25 30 33 37 40 43 45 47 49 50 49 47 47 48 49 49 49 48 48 48 48 46 45 43 43 40 38 39 40 37 34 34 36 37 37 37 35 33
38 38 35 33 34 34 34 36 38 42 45 47 49 50 50 50 49 48 48 48 49 49 49 49 49 49 48 46 44 43 40 40 42 41 36 34 35 37 38 38 37 35
35 38 41 42 42 40 38 37 38 40 43 45 48 50 51 52 52 51 50 49 50 51 51 49 49 50 50 48 45 44 42 40 41 42 40 37 36 37 39 39 38 37
39 39 41 44 45 45 43 41 41 42 42 43 45 47 51 53 54 54 53 52 53 54 53 51 49 49 50 49 46 45 43 41 40 42 42 39 37 37 39 39 39 38
44 43 43 45 47 48 48 47 46 46 46 46 45 46 48 51 54 56 56 56 56 56 56 54 50 49 50 50 47 45 44 42 41 42 43 41 38 37 39 39 38 38
47 48 47 47 47 49 51 52 53 53 52 53 52 50 50 52 54 56 57 58 58 58 57 56 53 51 50 49 47 45 44 43 42 42 43 43 40 37 38 39 38 37
50 51 51 51 51 52 52 54 56 58 58 58 58 58 56 54 55 56 56 58 60 61 60 58 55 52 51 49 46 44 44 42 43 44 45 45 41 38 38 38 37 37
44 45 47 50 53 55 57 58 59 60 60 58 58 60 60 59 58 55 54 54 57 60 60 59 56 53 52 50 47 45 44 43 43 45 46 44 41 38 38 38 37 36
37 38 40 43 46 50 54 55 56 59 61 60 58 57 57 59 59 58 55 53 54 56 58 58 57 54 53 52 50 47 45 43 44 45 45 43 40 39 38 38 37 37